Location: Houston
(29.7631°N, 95.3631°W)
Time: 05:32:57
(UTC-05:00)

BEESAT - Visible Passes

Search period start: 20 May 2019 00:00
Search period end: 30 May 2019 00:00
Orbit: 701 x 708 km, 98.6° (Epoch: 19 May)

Date Brightness Start Highest point End Pass type
(mag) Time Alt. Az. Time Alt. Az. Time Alt. Az.
20 May ? 04:42:27 10° ESE 04:46:06 22° ENE 04:49:46 10° NNE visible
21 May ? 05:24:37 10° SSE 05:29:20 68° ENE 05:34:06 10° N visible
22 May ? 04:32:24 10° ESE 04:35:26 17° ENE 04:38:28 10° NNE visible
23 May ? 05:14:00 10° SSE 05:18:36 50° ENE 05:23:14 10° N visible
24 May ? 04:22:42 10° E 04:24:47 13° ENE 04:26:51 10° NE visible
25 May ? 05:03:30 10° SE 05:07:53 37° ENE 05:12:17 10° N visible
26 May ? 05:46:30 10° S 05:51:14 69° WSW 05:56:01 10° NNW visible
27 May ? 04:53:07 10° SE 04:57:10 28° ENE 05:01:14 10° NNE visible
28 May ? 05:35:42 10° SSE 05:40:28 89° ENE 05:45:16 10° NNW visible
29 May ? 04:42:53 10° ESE 04:46:29 22° ENE 04:50:06 10° NNE visible
